SCP
0 0 0 0 0 0 0 0 0 0 0 0 0 0 0 0 0 0 0 0 0 0 0 0 0 0 0 0 0 0 0 0 0 0 0 0 0 0 0 0 0 0 0
0 0 0 0 0 0 0 0 0 0 0 0 0 0 0 0 0 0 0 0 0 0 0 0 0 0 0 0 0 0 0 0 0 0 0 0 0 0 0 0 0 0 0
0 0 0 0 0 0 0 0 0 0 0 0 0 0 0 0 0 0 0 0 0 0 0 0 0 0 0 0 0 0 0 0 0 0 0 0 0 0 0 0 0 0 0
0 0 0 0 0 0 0 0 0 0 0 0 0 0 0 0 0 0 0 0 0 0 0 0 0 0 0 0 0 0 0 0 0 0 0 0 0 0 0 0 0 0 0
0 0 0 0 0 0 0 0 0 0 0 0 0 0 0 0 0 0 0 0 0 0 0 0 0 0 0 0 0 0 0 0 0 0 0 0 0 0 0 0 0 0 0
0 0 0 0 0 0 0 0 0 0 0 0 0 0 0 0 0 0 0 0 0 0 0 0 0 0 0 0 0 0 0 0 0 0 0 0 0 0 0 0 0 0 0
0 0 0 0 0 0 0 0 0 0 0 0 0 0 0 0 1 1 0 0 0 0 0 0 0 0 0 0 0 0 0 0 0 0 0 0 0 0 0 0 0 0 0
0 0 0 0 0 0 0 0 0 0 0 0 0 0 1 1 1 1 0 0 0 0 0 0 0 0 0 0 0 0 0 0 0 0 0 0 0 0 0 0 0 0 0
0 0 0 0 0 0 0 0 0 0 1 1 1 1 1 1 1 1 0 0 0 0 0 0 0 0 0 0 0 0 0 0 0 0 0 0 0 0 0 0 0 0 0
0 0 0 0 0 1 1 1 1 1 1 1 1 1 1 1 1 1 0 0 0 0 0 0 0 0 0 0 0 0 0 0 0 0 0 0 0 0 0 0 0 0 0
0 0 0 0 1 1 1 1 1 1 1 1 1 1 1 1 1 1 0 0 0 0 0 0 0 0 0 0 0 0 0 0 0 0 0 0 0 0 0 0 0 0 0
0 0 0 0 1 1 1 1 1 1 1 1 1 1 1 1 1 1 0 0 0 0 0 0 0 0 0 0 0 0 0 0 0 0 0 0 0 0 0 0 0 0 0
0 0 0 0 1 1 1 1 1 1 1 1 1 1 1 1 1 1 0 0 0 0 0 0 0 0 0 0 0 0 0 0 0 0 0 0 0 0 0 0 0 0 0
0 0 0 0 1 1 1 1 1 1 1 1 1 1 1 1 1 1 1 0 0 0 0 0 0 0 0 0 0 0 0 0 0 0 0 0 0 0 0 0 0 0 0
0 0 0 0 1 1 1 1 1 1 1 1 1 0 0 1 1 1 1 1 0 0 0 0 0 0 0 0 0 0 0 0 0 0 0 0 0 0 0 0 0 0 0
0 0 0 0 0 1 1 1 1 1 1 0 0 0 0 1 1 1 1 0 0 0 0 0 0 0 0 0 0 0 0 0 0 0 0 0 0 0 0 0 0 0 0
0 0 0 0 0 0 0 0 0 0 0 0 0 0 0 0 1 1 1 0 0 0 0 0 0 0 0 0 0 0 0 0 0 0 0 0 0 0 0 0 0 0 0
0 0 0 0 0 0 0 0 0 0 0 0 0 0 0 0 1 1 1 0 0 0 0 0 0 0 0 0 0 0 0 0 0 0 0 0 0 0 0 0 0 0 0
0 0 0 0 0 0 0 0 0 0 0 0 0 0 0 0 0 0 0 0 0 0 0 0 0 0 0 0 0 0 0 0 0 0 0 0 0 0 0 0 0 0 0
0 0 0 0 0 0 0 0 0 0 0 0 0 0 0 0 0 0 0 0 0 0 0 0 0 0 0 0 0 0 0 0 0 0 0 0 0 0 0 0 0 0 0
0 0 0 0 0 0 0 0 0 0 0 0 0 0 0 0 0 0 0 0 0 0 0 0 0 0 0 0 0 0 0 0 0 0 0 0 0 0 0 0 0 0 0
0 0 0 0 0 0 0 0 0 0 0 0 0 0 0 0 0 0 0 0 0 0 0 0 0 0 0 0 0 0 0 0 0 0 0 0 0 0 0 0 0 0 0
0 0 0 0 0 0 0 0 0 0 0 0 0 0 0 0 0 0 0 0 0 0 0 0 0 0 0 0 0 0 0 0 0 0 0 0 0 0 0 0 0 0 0
0 0 0 0 0 0 0 0 0 0 0 0 0 0 0 0 0 0 0 0 0 0 0 0 0 0 0 0 0 0 0 0 0 0 0 0 0 0 0 0 0 0 0
0 0 0 0 0 0 0 0 0 0 0 0 0 0 0 0 0 0 0 0 0 0 0 0 0 0 0 0 0 0 0 0 0 0 0 0 0 0 0 0 0 0 0
0 0 0 0 0 0 0 0 0 0 0 0 0 0 0 0 0 0 0 0 0 0 0 0 0 0 0 0 0 0 0 0 0 0 0 0 0 0 0 0 0 0 0
Wind_Speed
6 5 5 5 5 4 5 5 4 4 3 3 3 2 2 1 1 1 2 2 2 2 3 2 2 2 2 2 2 2 2 2 1 2 2 2 2 2 2 2 2 2 2
4 5 5 5 6 6 5 4 4 4 4 3 3 2 2 1 2 1 1 2 3 3 3 3 2 2 2 2 2 2 2 1 1 2 1 2 3 3 3 2 2 2 2
8 7 7 6 6 7 7 6 6 5 4 3 2 2 1 1 0 1 1 2 3 3 3 3 3 3 3 2 2 2 3 2 1 1 2 2 0 2 2 2 2 2 2
7 7 7 7 8 8 7 6 5 4 4 4 4 4 4 3 3 2 2 2 2 3 3 3 3 3 2 2 2 2 2 3 1 1 1 1 2 1 1 2 2 2 2
8 8 9 9 8 7 6 6 5 5 5 5 6 5 4 3 2 2 2 2 2 2 3 3 3 3 2 2 2 2 2 2 2 2 1 2 2 1 1 0 2 2 1
6 6 6 6 6 6 6 5 5 5 5 5 5 5 5 4 3 3 3 2 1 1 2 3 3 3 2 2 3 3 3 2 2 2 2 2 2 1 2 1 0 1 1
5 5 6 6 7 7 6 5 6 5 5 4 4 4 5 5 5 4 4 3 2 2 3 3 3 3 2 2 2 3 2 2 2 2 2 2 1 2 2 2 1 0 1
5 6 7 7 7 8 7 7 7 6 5 5 5 4 3 3 3 3 3 3 3 3 3 3 3 3 3 2 2 2 2 2 2 2 2 2 2 2 2 2 2 1 1
5 6 5 6 7 8 8 8 7 5 5 5 4 4 3 3 3 3 3 3 3 3 4 4 3 3 3 3 3 2 2 2 2 2 2 2 1 2 2 2 2 3 1
3 4 5 5 6 6 6 6 6 6 5 5 5 4 4 4 3 3 3 3 3 3 4 4 4 3 3 2 3 2 1 2 2 2 2 2 2 2 2 2 2 2 2
3 4 5 4 4 3 4 5 5 5 4 4 4 4 4 4 4 3 3 3 3 3 4 4 4 3 3 2 2 2 2 2 2 2 2 2 2 2 2 2 2 2 2
2 3 4 4 4 4 4 5 5 5 5 4 4 4 3 3 4 3 2 2 3 3 4 3 3 3 3 3 3 3 3 3 2 2 2 2 2 2 2 2 2 2 2
1 2 3 4 4 4 4 4 5 5 4 4 4 3 3 3 4 3 3 4 4 3 3 4 4 3 3 3 3 3 3 2 2 2 2 2 2 2 2 2 2 2 2
1 1 3 3 3 3 4 4 3 3 4 4 4 4 3 3 3 3 3 4 4 3 3 4 3 3 3 3 3 3 2 2 2 2 2 2 3 3 3 2 2 2 2
1 1 2 2 2 2 3 3 3 3 4 4 4 4 3 2 2 3 3 3 3 3 3 3 3 3 3 3 3 3 3 2 1 1 1 2 2 3 3 2 3 3 2
0 0 1 1 2 2 2 3 3 3 3 4 4 3 3 3 3 3 3 3 3 3 3 3 3 3 3 4 5 4 3 3 2 1 1 1 1 1 2 2 3 4 3
0 1 1 2 2 2 3 3 3 3 3 2 2 2 2 3 3 3 3 3 2 2 3 3 3 3 3 4 5 5 4 3 3 3 2 2 1 1 1 1 1 2 3
1 1 0 0 0 1 2 3 3 3 3 2 2 1 2 2 2 3 3 2 2 2 2 2 3 2 3 4 5 5 4 3 3 3 3 3 2 2 2 1 1 2 3
1 1 1 1 1 2 2 4 4 3 3 2 2 2 2 3 3 3 3 2 2 2 2 2 3 3 2 4 5 5 3 2 2 2 2 3 2 3 3 2 2 3 3
0 0 1 1 2 2 3 4 3 3 3 3 3 2 3 3 3 3 2 2 2 2 2 2 1 2 2 2 4 5 3 2 2 1 2 3 3 3 4 3 3 4 4
0 1 2 1 1 2 3 3 3 3 3 2 2 2 2 2 3 2 2 2 2 2 2 2 1 0 1 1 3 5 3 3 3 2 2 2 3 4 4 4 4 6 4
0 1 2 1 1 1 3 3 3 2 1 2 2 1 1 1 2 3 2 2 3 3 2 1 1 0 1 1 2 4 4 4 3 3 2 2 3 3 4 4 4 5 3
1 1 2 1 1 1 3 3 2 1 2 2 1 1 1 1 2 2 2 2 2 2 2 2 1 1 1 1 2 3 4 4 2 2 3 3 3 3 3 4 4 3 2
1 1 2 1 1 1 1 2 2 2 3 3 2 1 2 1 1 1 2 2 2 2 2 2 2 1 1 1 1 2 2 2 2 1 2 2 2 2 2 2 2 2 2
1 1 2 2 2 1 1 2 2 3 3 2 2 2 2 2 2 1 1 2 2 3 3 3 3 3 3 4 4 3 3 2 2 1 0 1 1 1 1 1 1 1 1
1 1 2 2 2 2 2 2 2 3 3 2 2 2 2 1 2 1 0 1 1 2 3 3 3 3 4 4 5 5 4 4 4 2 1 2 2 2 2 2 2 2 2
Wind_Direction
197 182 175 169 160 164 169 169 165 172 162 162 168 174 199 208 204 210 188 177 175 168 156 149 134 132 130 135 130 119 99 70 65 75 40 23 27 32 31 42 57 53 52
191 186 178 173 174 178 182 175 179 181 182 186 182 173 168 185 193 200 189 185 180 173 167 150 148 148 138 125 122 116 114 84 70 104 90 15 5 15 32 44 60 45 48
198 195 190 190 184 185 186 189 192 190 188 173 140 119 96 75 112 200 209 207 183 172 162 156 151 155 154 158 153 138 132 139 74 78 121 126 241 336 4 32 46 46 48
203 198 194 194 194 196 188 184 185 187 185 171 170 173 181 193 208 202 202 198 181 169 163 159 159 162 158 155 166 144 137 137 138 84 66 106 143 144 0 4 28 35 37
204 201 199 196 195 190 184 182 176 182 183 181 183 183 193 202 187 170 175 186 190 179 171 160 157 162 162 161 153 139 140 139 144 145 128 98 73 87 139 312 348 4 6
212 206 197 185 190 184 179 172 171 186 183 182 183 185 190 183 174 182 185 193 188 183 177 164 163 163 161 165 168 160 153 156 147 144 140 143 138 157 149 178 271 331 335
199 192 190 187 189 184 179 175 178 191 187 181 186 194 195 189 194 195 190 185 183 187 192 176 170 168 168 165 158 157 163 164 159 167 170 167 161 149 149 148 163 318 326
198 192 192 190 190 187 182 178 189 199 190 186 193 193 190 191 199 198 192 191 194 193 180 173 170 165 160 161 152 155 172 157 167 177 168 164 170 157 160 159 152 128 339
209 195 187 185 190 189 188 187 188 196 195 191 188 183 181 182 189 187 189 193 190 180 170 169 166 166 166 167 157 163 177 156 158 163 162 167 178 170 173 170 168 163 196
220 192 184 190 190 189 185 180 179 184 191 188 191 190 185 183 182 174 184 189 186 177 167 171 172 168 170 167 159 159 169 153 160 164 169 190 195 175 169 179 179 174 179
227 201 191 188 181 173 173 179 177 173 178 185 188 184 185 179 176 179 192 190 178 176 176 181 180 175 175 171 159 161 160 164 174 181 190 215 197 184 184 179 175 182 174
227 200 181 166 164 172 178 179 181 184 189 181 174 185 184 177 175 185 189 189 187 182 183 179 175 178 177 172 171 179 175 176 191 211 206 223 204 197 200 186 188 192 189
265 175 164 167 173 175 177 184 186 189 186 173 169 179 186 188 194 191 184 187 185 182 183 174 172 181 183 181 181 176 175 182 199 207 207 219 191 212 217 202 204 205 197
283 170 167 175 175 170 173 175 183 179 167 165 175 192 200 197 196 183 175 183 186 181 179 175 173 182 187 184 176 170 174 178 206 216 214 214 205 213 215 211 211 201 192
28 170 181 183 165 144 153 158 155 156 164 166 181 201 198 179 166 162 169 174 185 186 177 167 166 170 178 184 170 172 169 167 190 234 236 223 210 208 210 210 203 190 194
322 285 191 158 144 147 153 150 149 163 156 167 186 185 163 157 160 164 165 165 178 176 163 165 168 169 193 179 168 168 170 170 183 216 250 249 233 234 220 218 206 199 203
352 299 208 198 183 174 159 157 160 150 144 158 160 156 152 159 170 169 155 163 172 165 165 169 167 174 191 180 173 177 175 180 196 214 226 244 243 218 225 226 234 241 230
260 280 270 226 72 125 130 131 128 128 132 132 133 145 150 155 147 142 157 168 163 164 177 180 178 180 202 187 181 180 178 189 208 215 214 217 245 235 207 211 244 257 255
246 243 232 187 129 122 134 125 126 127 130 144 155 180 171 165 154 157 172 171 163 172 179 174 174 182 211 196 186 174 178 190 215 227 217 212 230 243 199 194 230 257 267
280 177 122 110 138 142 129 129 141 143 170 185 183 182 172 167 163 170 165 155 158 169 165 157 164 181 216 214 189 176 177 190 213 235 239 231 234 239 211 208 222 241 256
235 136 122 115 171 151 140 149 164 192 206 191 167 163 171 166 163 160 146 143 148 145 143 136 124 148 258 241 204 185 186 196 203 223 245 257 253 242 228 221 226 236 242
69 106 111 93 31 132 149 169 207 219 182 159 154 160 159 156 139 135 132 145 149 144 146 145 138 282 277 249 224 203 201 197 197 221 240 251 255 241 236 230 240 243 235
165 127 120 97 347 194 167 189 227 178 148 141 147 155 143 128 133 143 148 141 142 149 166 179 202 260 270 252 228 212 210 203 204 226 231 248 262 255 245 241 241 234 213
200 177 144 151 232 246 195 197 202 175 153 150 160 163 154 148 140 148 157 159 170 170 183 204 221 251 272 271 262 244 221 213 213 240 261 268 270 258 260 262 244 219 214
215 175 181 195 224 233 232 213 190 165 159 165 173 175 179 171 166 162 180 188 209 202 197 213 215 216 241 248 238 225 226 216 218 216 281 281 273 269 271 272 265 231 217
261 198 213 220 232 228 238 234 200 172 167 175 186 191 183 177 171 162 60 350 241 243 227 220 215 232 234 233 223 221 222 208 184 165 220 237 235 239 245 247 251 242 241